SCP
0 0 0 0 0 0 0 0 0 0 0 0 0 0 0 0 0 0 0 0 0 0 0 0 0 0 0 0 0 0 0 0 0 0 0 0 0 0 0 0 0 0 0
0 0 0 0 0 0 0 0 0 0 0 0 0 0 0 0 0 0 0 0 0 0 0 0 0 0 0 0 0 0 0 0 0 0 0 0 0 0 0 0 0 0 0
0 0 0 0 0 0 0 0 0 0 0 0 0 0 0 0 0 0 0 0 0 0 0 0 0 0 0 0 0 0 0 0 0 0 0 0 0 0 0 0 0 0 0
0 0 0 0 0 0 0 0 0 0 0 0 0 0 0 0 0 0 0 0 0 0 0 0 0 0 0 0 0 0 0 0 0 0 0 0 0 0 0 0 0 0 0
0 0 0 0 0 0 0 0 0 0 0 0 0 0 0 0 0 0 0 0 0 0 0 0 0 0 0 0 0 0 0 0 0 0 0 0 0 0 0 0 0 0 0
0 0 0 0 0 0 0 0 0 0 0 0 0 0 0 0 0 0 0 0 0 0 0 0 0 0 0 0 0 0 0 0 0 0 0 0 0 0 0 0 0 0 0
0 0 0 0 0 0 0 0 0 0 0 0 0 0 0 0 0 0 0 0 0 0 0 0 0 0 0 0 0 0 0 0 0 0 0 0 0 0 0 0 0 0 0
0 0 0 0 0 0 0 0 0 0 0 0 0 0 0 0 0 0 0 0 0 0 0 0 0 0 0 0 0 0 0 0 0 0 0 0 0 0 0 0 0 0 0
0 0 0 0 0 0 0 0 0 0 0 0 0 0 0 0 0 0 0 0 0 0 0 0 0 0 0 0 0 0 0 0 0 0 0 0 0 0 0 0 0 0 0
0 0 0 0 0 0 0 0 0 0 0 0 0 0 0 0 0 0 0 0 0 0 0 0 0 0 0 0 0 0 0 0 0 0 0 0 0 0 0 0 0 0 0
0 0 0 0 0 0 0 0 0 0 0 0 0 0 0 0 0 0 0 0 0 0 0 0 0 0 0 0 0 0 0 0 0 0 0 0 0 0 0 0 0 0 0
0 0 0 0 0 0 0 0 0 0 0 0 0 0 0 0 0 0 0 0 0 0 0 0 0 0 0 0 0 0 0 0 0 0 0 0 0 0 0 0 0 0 0
0 0 0 0 0 0 0 0 0 0 0 0 0 0 0 0 0 0 0 0 0 0 0 0 0 0 0 0 0 0 0 0 0 0 0 0 0 0 0 0 0 0 0
0 0 0 0 0 0 0 0 0 0 0 0 0 0 0 0 0 0 0 0 0 0 0 0 0 0 0 0 0 0 0 0 0 0 0 0 0 0 0 0 0 0 0
0 0 0 0 0 0 0 0 0 0 0 0 0 0 0 0 0 0 0 0 0 0 0 0 0 0 0 0 0 0 0 0 0 0 0 0 0 0 0 0 0 0 0
0 0 0 0 0 0 0 0 0 0 0 0 0 0 0 0 0 0 0 0 0 0 0 0 0 0 0 0 0 0 0 0 0 0 0 0 0 0 0 0 0 0 0
0 0 0 0 0 0 0 0 0 0 0 0 0 0 0 0 0 0 0 0 0 0 0 0 0 0 0 0 0 0 0 0 0 0 0 0 0 0 0 0 0 0 0
0 0 0 0 0 0 0 0 0 0 0 0 0 0 0 0 0 0 0 0 0 0 0 0 0 0 0 0 0 0 0 0 0 0 0 0 0 0 0 0 0 0 0
0 0 0 0 0 0 0 0 0 0 0 0 0 0 0 0 0 0 0 0 0 0 0 0 0 0 0 0 0 0 0 0 0 0 0 0 0 0 0 0 0 0 0
0 0 0 0 0 0 0 0 0 0 0 0 0 0 0 0 0 0 0 0 0 0 0 0 0 0 0 0 0 0 0 0 0 0 0 0 0 0 0 0 0 0 0
0 0 0 0 0 0 0 0 0 0 0 0 0 0 0 0 0 0 0 0 0 0 0 0 0 0 0 0 0 0 0 0 0 0 0 0 0 0 0 0 0 0 0
0 0 0 0 0 0 0 0 0 0 0 0 0 0 0 0 0 0 0 0 0 0 0 0 0 0 0 0 0 0 0 0 0 0 0 0 0 0 0 0 0 0 0
0 0 0 0 0 0 0 0 0 0 0 0 0 0 0 0 0 0 0 0 0 0 0 0 0 0 0 0 0 0 0 0 0 0 0 0 0 0 0 0 0 0 0
0 0 0 0 0 0 0 0 0 0 0 0 0 0 0 0 0 0 0 0 0 0 0 0 0 0 0 0 0 0 0 0 0 0 0 0 0 0 0 0 0 0 0
0 0 0 0 0 0 0 0 0 0 0 0 0 0 0 0 0 0 0 0 0 0 0 0 0 0 0 0 0 0 0 0 0 0 0 0 0 0 0 0 0 0 0
0 0 0 0 0 0 0 0 0 0 0 0 0 0 0 0 0 0 0 0 0 0 0 0 0 0 0 0 0 0 0 0 0 0 0 0 0 0 0 0 0 0 0
Wind_Speed
3 3 3 4 5 6 6 7 8 8 8 9 9 9 9 9 9 9 9 9 9 10 9 9 9 9 9 8 8 8 9 9 8 8 8 8 8 8 8 7 6 4 7
2 2 2 3 4 5 6 7 7 8 8 8 8 9 8 8 8 9 9 9 10 10 10 10 10 10 9 9 9 9 9 8 8 8 8 7 7 8 8 7 7 5 8
0 1 1 3 4 5 6 6 7 8 8 8 8 9 8 8 8 8 9 9 10 10 10 11 10 10 10 9 9 9 8 8 8 8 7 4 4 8 8 7 7 8 8
1 1 1 3 5 5 6 7 7 7 8 8 9 8 8 8 7 7 8 9 9 10 10 10 10 10 10 10 9 9 9 9 8 7 4 4 3 7 8 7 8 9 9
2 2 2 4 5 6 6 7 7 7 8 8 8 8 8 8 7 7 8 9 9 9 10 10 10 10 10 10 10 9 9 9 8 6 4 3 3 6 8 8 8 8 8
1 2 2 4 5 6 6 7 7 7 8 8 9 9 9 9 10 10 10 10 9 10 10 10 10 10 10 11 11 10 10 9 7 4 4 3 3 6 8 8 8 8 8
1 2 2 4 5 6 6 7 7 8 8 8 9 9 9 10 12 12 11 10 10 10 10 10 10 10 11 11 11 11 11 10 6 5 4 3 4 8 8 8 8 8 8
1 2 3 4 5 6 6 6 7 8 8 9 9 9 10 11 11 11 10 10 10 10 10 10 10 11 11 11 11 11 11 10 7 6 4 4 7 9 9 9 9 9 8
2 2 3 3 4 5 6 6 7 8 8 9 9 10 10 11 11 10 10 10 10 10 10 10 10 11 11 11 11 11 11 11 6 4 5 3 7 9 9 10 9 9 9
3 3 3 3 4 4 4 6 7 8 8 9 9 10 10 10 10 10 9 9 9 9 10 10 11 11 11 11 11 11 11 9 5 4 3 4 9 9 9 9 9 9 9
2 2 2 3 3 3 3 5 6 7 8 8 7 9 8 5 5 5 8 10 10 10 10 10 11 12 11 11 11 11 9 4 4 3 3 7 9 9 10 9 9 8 8
1 1 1 2 2 3 3 3 3 4 4 4 4 5 4 4 4 6 9 10 11 10 10 11 11 10 8 5 7 8 4 5 4 3 3 8 9 9 9 8 8 8 8
0 1 1 1 2 2 2 2 2 2 3 3 4 4 4 4 4 4 4 5 6 7 6 7 6 5 4 4 4 4 4 4 3 3 4 8 8 9 9 8 8 8 8
1 1 1 2 2 2 2 2 2 2 2 2 3 4 3 3 3 3 3 3 3 3 4 4 3 4 5 5 5 5 5 4 3 3 4 8 8 8 8 8 8 8 8
1 0 1 2 2 2 2 1 2 2 2 2 2 3 3 3 3 3 3 3 3 3 3 3 4 4 4 4 5 5 5 4 4 4 3 8 8 8 8 8 8 9 8
1 1 1 2 2 2 2 2 1 2 2 2 3 3 3 3 3 3 3 3 3 3 3 3 4 4 4 4 5 5 4 4 4 5 4 5 9 8 8 8 8 8 8
1 1 1 2 3 3 2 2 2 2 2 2 2 3 3 3 3 3 3 3 3 3 4 4 4 4 4 4 5 4 4 4 4 5 4 4 5 8 9 8 7 7 7
2 2 1 2 3 2 2 2 2 2 2 2 2 2 3 3 3 3 3 2 2 3 3 3 3 4 4 3 3 4 4 4 5 4 4 4 3 4 6 8 6 6 6
2 2 2 3 3 2 2 2 3 2 3 2 2 2 2 3 3 3 2 2 2 3 3 3 3 3 3 3 3 3 4 3 3 4 4 3 3 3 3 6 7 7 5
2 2 3 3 3 3 3 3 3 3 3 2 2 2 2 2 3 3 2 2 2 3 3 3 3 3 2 2 3 4 3 3 3 3 3 3 3 3 3 3 4 5 6
2 3 3 3 3 3 2 2 2 1 1 2 2 2 2 2 2 2 2 2 2 2 2 2 2 3 2 2 3 3 3 3 3 3 2 2 3 3 3 3 2 2 3
3 3 2 2 3 2 2 2 2 1 1 1 1 2 3 2 2 2 2 2 2 2 2 2 2 2 1 1 2 2 2 3 3 3 2 2 3 3 3 3 3 3 3
3 3 3 3 3 3 2 2 3 3 2 2 2 2 2 2 2 2 2 2 1 2 1 1 2 2 1 0 1 2 2 1 2 2 2 2 2 2 2 2 3 3 3
3 3 2 2 2 2 3 3 4 2 1 1 0 0 1 2 2 2 2 2 1 1 1 1 1 1 2 1 0 1 1 2 2 1 2 2 2 2 2 2 2 2 3
3 3 2 2 2 2 3 4 4 2 1 1 1 1 1 1 1 1 1 1 1 1 1 1 1 1 1 1 1 1 1 1 1 2 1 2 2 2 1 1 1 2 2
2 2 3 3 2 2 3 3 3 4 3 2 1 1 0 1 1 1 1 0 1 1 1 1 1 1 1 1 1 1 2 2 1 2 1 1 1 2 2 1 1 1 1
Wind_Direction
295 295 333 29 38 46 52 55 57 61 62 65 68 69 69 71 73 75 77 78 81 83 88 93 95 98 98 97 96 94 94 98 103 105 105 107 112 116 113 108 107 110 116
255 298 6 39 50 54 55 58 60 59 62 64 68 69 68 70 71 74 75 78 81 83 86 88 89 90 90 90 92 93 95 97 98 96 95 100 107 112 113 111 110 109 110
309 332 13 49 58 61 61 65 64 63 62 64 67 67 68 71 73 75 75 79 81 83 86 87 85 85 87 87 87 90 95 96 95 91 85 73 95 107 109 107 109 109 106
83 20 35 63 59 61 64 68 65 65 63 63 64 65 61 67 73 80 83 83 83 84 85 85 83 84 84 82 82 86 91 91 92 88 73 66 80 103 104 102 103 104 104
57 24 21 68 60 62 68 70 68 65 64 66 65 64 59 57 67 87 91 87 85 84 85 85 83 82 82 81 79 82 86 87 86 80 73 71 75 99 102 100 100 99 101
55 23 16 66 66 66 70 70 70 66 67 68 66 62 60 58 66 83 88 86 84 84 86 87 84 82 80 79 77 80 85 83 79 75 72 73 81 101 102 101 99 99 101
61 23 22 68 70 70 70 69 70 67 67 70 69 64 61 63 68 76 81 82 80 81 83 85 82 82 80 78 77 79 83 82 79 78 76 76 87 99 99 96 94 95 96
76 37 27 47 66 67 69 68 71 67 65 67 67 66 62 64 68 71 77 80 77 76 77 79 78 80 78 77 78 78 78 76 79 80 77 74 92 98 100 98 94 92 92
63 52 32 27 39 52 57 60 66 66 63 63 64 65 63 61 64 68 72 75 74 75 79 80 78 79 80 79 77 74 73 71 66 73 79 76 95 98 100 96 92 89 86
49 45 32 26 27 28 34 48 59 61 59 59 61 63 61 56 55 61 65 70 71 72 76 77 76 77 78 77 75 73 70 64 53 57 63 85 92 97 99 96 94 91 87
45 27 29 29 26 25 29 41 46 51 49 52 54 59 56 40 34 48 63 69 71 71 72 72 71 69 69 68 70 69 62 52 50 50 59 85 90 93 94 94 96 95 94
31 14 38 33 29 31 39 38 28 36 35 42 44 45 45 41 38 46 49 61 64 66 68 69 68 63 57 51 56 59 50 48 49 43 65 80 86 90 91 91 95 96 95
151 37 47 44 38 47 42 43 32 33 37 42 45 47 49 44 40 40 40 40 43 51 53 57 56 52 54 54 53 53 50 48 43 38 56 75 79 85 87 88 90 90 91
87 55 53 73 62 53 54 51 44 39 41 43 39 49 57 52 46 44 47 39 41 46 55 55 59 59 59 58 62 62 55 51 44 36 49 69 74 82 85 87 88 84 84
125 107 68 89 85 70 65 52 56 45 47 47 45 47 62 69 59 53 50 49 46 48 54 55 59 61 63 58 61 64 58 53 49 44 37 54 67 78 83 82 87 86 82
160 133 81 97 93 88 80 71 58 51 49 51 51 52 64 71 69 67 59 53 47 47 53 63 62 64 66 64 59 57 55 49 49 49 41 39 48 63 71 74 77 84 82
163 125 112 117 93 93 86 76 66 58 59 57 54 58 63 73 76 76 67 56 50 53 59 62 58 56 61 60 53 50 53 50 49 47 42 39 34 42 51 61 67 77 77
132 113 98 110 103 98 92 81 69 60 64 59 58 61 62 72 84 83 79 61 54 60 62 66 61 60 55 53 48 40 42 43 42 42 43 41 35 31 35 44 52 62 71
153 136 110 99 107 109 99 84 74 64 58 52 55 56 56 69 80 82 79 67 67 68 61 73 61 67 66 57 55 45 36 35 32 40 41 39 36 38 33 29 29 31 46
143 131 119 104 101 103 91 75 65 57 44 40 47 50 58 69 79 83 80 73 79 77 62 64 70 59 62 57 60 49 32 28 34 33 28 27 28 36 37 34 20 9 24
133 131 127 117 113 108 92 91 85 63 32 25 26 45 59 69 76 82 76 72 83 96 104 97 85 71 55 50 58 33 17 24 35 27 22 27 23 26 32 28 19 10 5
160 156 143 138 136 135 126 123 117 116 85 52 18 38 46 61 73 90 85 81 87 96 95 101 102 93 68 67 89 74 20 1 4 14 15 26 17 20 26 20 19 14 4
168 170 166 163 153 144 124 99 79 62 48 36 23 18 15 51 73 83 94 96 91 106 135 142 134 130 138 72 96 121 122 226 324 343 3 14 10 17 10 11 17 8 4
195 172 152 150 147 144 139 135 131 128 131 207 237 348 13 45 63 77 96 98 106 104 116 167 141 140 135 143 69 79 145 161 153 333 334 350 360 7 4 10 8 2 2
177 160 148 135 135 143 152 155 146 137 148 122 77 63 32 20 35 54 93 103 111 129 150 113 103 126 136 151 158 135 100 80 121 150 280 328 345 342 347 349 356 355 359
161 152 148 148 157 155 155 156 159 158 152 131 115 101 13 359 0 15 57 119 148 134 150 148 131 132 152 149 153 152 155 158 174 160 185 266 302 310 326 332 340 346 351